1500948000.65,996,20.19,73098.3,5.77,4.93,4.93,0,*7E
1500948001.89,997,20.19,73104.3,5.77,4.97,5.05,0,*75
1500948003.13,998,20.25,73102.8,5.77,4.97,5.05,0,*7A
1500948004.35,999,20.19,73102.3,5.75,4.93,4.93,0,*73
1500948005.59,1000,20.19,73106.5,5.77,5.05,5.05,0,*49
1500948006.83,1001,20.19,73100.8,5.77,4.97,5.05,0,*42
1500948008.08,1002,20.19,73106.3,5.77,4.97,5.05,0,*41
1500948009.32,1003,20.19,73104.5,5.77,5.05,5.05,0,*4A
1500948010.57,1004,20.19,73108.5,5.77,5.05,5.05,0,*4D
1500948011.81,1005,20.19,73104.3,5.77,4.97,4.97,0,*4C
1500948013.06,1006,20.19,73100.3,5.77,4.97,5.05,0,*45
1500948014.3,1007,20.19,73098.8,5.77,5.05,5.05,0,*4E
1500948015.54,1008,20.19,73094.8,5.77,4.97,5.05,0,*4B
1500948016.79,1009,20.19,73098.3,5.77,4.97,5.05,0,*4A
1500948018.03,1010,20.19,73096.3,5.77,4.93,4.93,0,*48
1500948019.25,1011,20.19,73098.0,5.77,4.85,4.93,0,*4E
1500948020.5,1012,20.19,73094.0,5.77,4.93,4.93,0,*4A
1500948021.75,1013,20.19,73092.8,5.77,4.93,4.93,0,*4B
1500948022.99,1014,20.19,73094.5,5.77,4.93,4.93,0,*4C
1500948024.21,1015,20.19,73094.3,5.77,4.85,4.93,0,*4A
1500948025.43,1016,20.19,73094.0,5.75,4.97,4.93,0,*48
1500948026.68,1017,20.19,73096.0,5.77,4.93,4.97,0,*4B
1500948027.93,1018,20.19,73096.3,5.77,4.97,4.93,0,*44
1500948029.17,1019,20.25,73102.3,5.77,5.05,4.97,0,*4B
1500948030.42,1020,20.19,73102.5,5.77,4.93,4.97,0,*4F
1500948031.67,1021,20.19,73100.8,5.77,5.05,4.97,0,*40
1500948032.91,1022,20.19,73104.0,5.77,4.97,4.97,0,*49
1500948034.16,1023,20.19,73106.5,5.77,4.97,4.97,0,*48
1500948035.34,1024,20.19,73100.8,5.77,4.85,4.81,0,*4B
1500948036.53,1025,20.19,73098.3,5.77,4.81,4.81,0,*4E
1500948037.72,1026,20.19,73100.3,5.79,4.79,4.85,0,*40
1500948038.94,1027,20.19,73100.0,5.79,4.79,4.79,0,*42
1500948040.18,1028,20.19,73096.0,5.77,4.75,4.75,0,*43
1500948041.4,1029,20.19,73100.3,5.77,4.81,4.75,0,*49
1500948042.62,1030,20.19,73096.5,5.77,4.81,4.75,0,*41
1500948043.84,1031,20.19,73100.3,5.77,4.81,4.75,0,*40
1500948045.07,1032,20.19,73100.8,5.75,4.71,4.71,0,*4A
1500948046.31,1033,20.19,73098.0,5.77,4.63,4.63,0,*49
1500948047.53,1034,20.25,73084.8,5.75,4.59,4.67,0,*41
1500948048.7,1035,20.19,73084.5,5.75,4.81,4.89,0,*45
1500948049.89,1036,20.19,73090.5,5.77,4.85,4.85,0,*4C
1500948051.07,1037,20.19,73098.8,5.77,4.81,4.81,0,*4D
1500948052.26,1038,20.19,73098.0,5.75,4.81,4.79,0,*47
1500948053.51,1039,20.19,73100.8,5.77,4.75,4.75,0,*43
1500948054.71,1040,20.19,73098.8,5.75,4.81,4.71,0,*40
1500948055.9,1041,20.19,73098.8,5.77,4.85,4.85,0,*4C
1500948057.06,1042,20.19,73100.0,5.75,4.81,4.81,0,*4D
1500948058.24,1043,20.19,73096.3,5.77,4.81,4.81,0,*4E
1500948059.41,1044,20.19,73102.5,5.75,4.89,4.89,0,*4B
1500948060.57,1045,20.19,73100.5,5.75,4.81,4.89,0,*42
1500948061.76,1046,20.19,73100.5,5.77,4.85,4.85,0,*4B
1500948063.01,1047,20.19,73100.5,5.77,4.93,4.93,0,*4A
1500948064.23,1048,20.19,73098.8,5.75,4.67,4.71,0,*40
1500948065.46,1049,20.19,73094.3,5.75,4.71,4.79,0,*4E
1500948066.64,1050,20.19,73088.0,5.77,4.81,4.81,0,*4C
1500948067.86,1051,20.19,73090.3,5.75,4.79,4.79,0,*4F
1500948069.03,1052,20.19,73092.0,5.75,4.89,4.89,0,*4C
1500948070.22,1053,20.19,73088.0,5.75,4.81,4.79,0,*4A
1500948071.47,1054,20.19,73086.5,5.77,4.75,4.75,0,*48
1500948072.66,1055,20.19,73084.8,5.77,4.85,4.85,0,*49
1500948073.84,1056,20.19,73086.0,5.75,4.79,4.81,0,*4F
1500948075.01,1057,20.19,73088.0,5.75,4.81,4.89,0,*41
1500948076.25,1058,20.19,73084.8,5.77,4.93,4.93,0,*44
1500948077.42,1059,20.19,73084.5,5.75,4.81,4.89,0,*4F
1500948078.63,1060,20.19,73084.0,5.77,4.81,4.79,0,*48
1500948079.79,1061,20.19,73090.3,5.75,4.81,4.81,0,*4C
1500948080.98,1062,20.19,73086.5,5.77,4.85,4.85,0,*4D
1500948082.15,1063,20.19,73086.0,5.75,4.85,4.85,0,*4E
1500948083.37,1064,20.25,73090.5,5.75,4.67,4.71,0,*4E
1500948084.59,1065,20.19,73086.8,5.75,4.67,4.59,0,*45
1500948085.8,1066,20.19,73086.3,5.75,4.67,4.59,0,*46
1500948087.02,1067,20.19,73084.3,5.75,4.59,4.59,0,*4A
1500948088.25,1068,20.19,73086.3,5.75,4.71,4.71,0,*45
1500948089.42,1069,20.19,73088.3,5.75,4.89,4.89,0,*44
1500948090.61,1070,20.19,73088.8,5.75,5.01,4.89,0,*4D
1500948091.83,1071,20.19,73090.5,5.75,5.05,4.93,0,*43
1500948093.06,1072,20.19,73092.8,5.75,5.01,4.93,0,*44
1500948094.28,1073,20.19,73096.3,5.75,5.01,4.93,0,*45
1500948095.51,1074,20.19,73094.5,5.75,4.93,4.93,0,*48
1500948096.73,1075,20.19,73096.3,5.75,5.05,5.01,0,*4D
1500948097.96,1076,20.19,73092.8,5.75,5.01,5.01,0,*4A
1500948099.21,1077,20.19,73096.5,5.77,5.05,4.97,0,*43
1500948100.43,1078,20.19,73096.8,5.75,5.01,4.93,0,*4E
1500948101.66,1079,20.19,73096.5,5.75,5.01,5.01,0,*45
1500948102.89,1080,20.19,73098.3,5.75,4.93,4.93,0,*43
1500948104.13,1081,20.19,73100.0,5.77,4.97,5.05,0,*4A
1500948105.35,1082,20.19,73098.0,5.75,4.93,4.93,0,*41
1500948106.58,1083,20.19,73094.8,5.75,5.01,5.01,0,*40
1500948107.83,1084,20.19,73098.3,5.77,5.05,4.97,0,*4F
1500948109.07,1085,20.19,73100.8,5.77,5.05,5.05,0,*44
1500948110.3,1086,20.19,73100.8,5.75,5.01,5.01,0,*45
1500948111.54,1087,20.19,73102.3,5.77,5.01,5.05,0,*42
1500948112.79,1088,20.19,73098.8,5.77,4.97,5.05,0,*43
1500948114.01,1089,20.19,73098.5,5.75,4.93,5.01,0,*40
1500948115.24,1090,20.19,73098.3,5.75,4.93,4.93,0,*42
1500948116.49,1091,20.19,73098.8,5.77,4.93,4.93,0,*41
1500948117.68,1092,20.19,73096.5,5.75,4.93,4.89,0,*4B
1500948118.92,1093,20.19,73094.8,5.77,4.93,4.93,0,*43
1500948120.14,1094,20.19,73092.0,5.77,4.93,4.85,0,*43
1500948121.33,1095,20.19,73096.0,5.77,4.85,4.85,0,*45
1500948122.55,1096,20.19,73096.5,5.77,4.75,4.85,0,*49
1500948123.73,1097,20.19,73094.0,5.77,4.81,4.81,0,*47
1500948124.92,1098,20.19,73094.0,5.75,4.81,4.79,0,*4D
1500948126.09,1099,20.19,73090.0,5.75,4.89,4.89,0,*4B
1500948127.32,1100,20.19,73090.5,5.75,5.01,5.01,0,*4A
1500948128.56,1101,20.19,73094.0,5.77,5.05,5.05,0,*49
1500948129.81,1102,20.19,73092.3,5.77,4.97,4.97,0,*4A
1500948131.03,1103,20.19,73092.5,5.77,4.85,4.97,0,*48
1500948132.27,1104,20.19,73092.8,5.77,4.93,4.93,0,*4C
1500948133.5,1105,20.19,73092.3,5.75,5.01,5.01,0,*4F
1500948134.74,1106,20.19,73092.8,5.77,4.97,5.05,0,*44
1500948135.93,1107,20.19,73098.8,5.77,4.85,4.85,0,*4F
1500948137.18,1108,20.19,73094.5,5.77,4.93,4.93,0,*40
1500948138.43,1109,20.19,73092.3,5.77,4.97,4.97,0,*41
1500948139.67,1110,20.19,73092.8,5.77,5.05,5.05,0,*49
1500948140.9,1111,20.19,73092.0,5.75,5.01,5.01,0,*4A
1500948142.12,1112,20.19,73092.5,5.75,5.01,5.01,0,*49
1500948143.37,1113,20.19,73096.0,5.77,5.05,5.05,0,*4A
1500948144.61,1114,20.19,73096.0,5.77,4.97,5.05,0,*47
1500948145.84,1115,20.19,73092.8,5.75,5.01,5.01,0,*4E
1500948147.09,1116,20.19,73096.3,5.77,4.97,4.93,0,*4B
1500948148.33,1117,20.19,73088.5,5.77,4.97,4.93,0,*4A
1500948149.56,1118,20.19,73090.3,5.79,4.97,5.01,0,*41
1500948150.8,1119,20.19,73092.3,5.77,4.93,5.05,0,*4E
1500948152.05,1120,20.19,73098.3,5.77,4.93,4.97,0,*4E
1500948153.27,1121,20.19,73094.5,5.77,4.93,4.85,0,*4C
1500948154.51,1122,20.19,73094.0,5.77,4.93,4.93,0,*48
1500948155.73,1123,20.19,73094.0,5.77,4.85,4.93,0,*4E
1500948156.98,1124,20.19,73094.5,5.77,4.93,4.97,0,*4A
1500948158.22,1125,20.19,73096.8,5.77,4.97,5.05,0,*45
1500948159.47,1126,20.19,73092.3,5.77,5.05,5.05,0,*4C
1500948160.71,1127,20.19,73094.5,5.77,4.97,4.97,0,*4D
1500948161.96,1128,20.19,73090.0,5.77,4.93,4.97,0,*46
1500948163.21,1129,20.19,73088.5,5.77,4.93,4.97,0,*47
1500948164.45,1130,20.19,73088.5,5.77,4.97,5.05,0,*41
1500948165.69,1131,20.19,73088.8,5.77,5.05,5.05,0,*4A
1500948166.94,1132,20.19,73088.5,5.77,4.97,5.05,0,*43
1500948168.13,1133,20.19,73088.0,5.79,5.07,5.01,0,*40
1500948169.36,1134,20.19,73084.3,5.79,5.01,5.01,0,*41
1500948170.61,1135,20.19,73086.5,5.77,4.97,4.93,0,*4A
1500948171.85,1136,20.19,73084.8,5.77,4.97,5.05,0,*47
1500948173.09,1137,20.19,73084.8,5.77,5.05,5.05,0,*4C
1500948174.29,1138,20.19,73084.5,5.79,5.07,5.01,0,*4B
1500948175.52,1139,20.19,73090.0,5.79,5.01,4.97,0,*42
1500948176.71,1140,20.19,73088.8,5.79,4.97,4.89,0,*4D
1500948177.9,1141,20.19,73086.3,5.79,4.89,4.97,0,*4C
1500948179.09,1142,20.19,73088.0,5.79,4.79,4.85,0,*43
1500948180.26,1143,20.19,73086.3,5.79,4.85,4.85,0,*41
1500948181.43,1144,20.19,73090.3,5.79,4.85,4.85,0,*46
1500948182.59,1145,20.19,73090.3,5.79,4.89,4.89,0,*47
1500948183.82,1146,20.19,73090.3,5.79,4.97,4.97,0,*44
1500948185.03,1147,20.19,73092.8,5.79,4.79,4.79,0,*45
1500948186.2,1148,20.19,73092.3,5.79,4.85,4.85,0,*4A
1500948187.37,1149,20.19,73094.0,5.79,4.89,4.85,0,*47
1500948188.56,1150,20.19,73094.5,5.77,4.85,4.85,0,*4D
1500948189.75,1151,20.19,73094.3,5.75,4.93,4.89,0,*45
1500948191.0,1152,20.19,73094.5,5.77,4.93,4.93,0,*4F
1500948192.24,1153,20.19,73092.8,5.77,4.93,4.97,0,*4A
1500948193.49,1154,20.19,73096.0,5.77,5.05,5.05,0,*49
1500948194.73,1155,20.19,73096.5,5.77,4.93,4.97,0,*4C
1500948195.92,1156,20.19,73096.0,5.77,4.85,4.85,0,*4B
1500948197.14,1157,20.19,73098.0,5.77,4.85,4.93,0,*4D
1500948198.37,1158,20.19,73102.0,5.79,4.97,4.97,0,*4B
1500948199.56,1159,20.19,73096.8,5.79,4.97,4.89,0,*45
1500948200.78,1160,20.19,73102.0,5.79,4.97,4.97,0,*40
1500948201.94,1161,20.19,73098.0,5.79,4.89,4.89,0,*41
1500948203.13,1162,20.19,73102.5,5.79,4.79,4.89,0,*4D
1500948204.3,1163,20.19,73102.8,5.79,4.85,4.85,0,*43
1500948205.55,1164,20.19,73100.5,5.81,4.97,4.97,0,*43
1500948206.74,1165,20.19,73098.8,5.79,4.97,4.89,0,*4A
1500948207.96,1166,20.19,73094.0,5.77,4.85,4.93,0,*4F
1500948209.17,1167,20.19,73098.5,5.77,4.93,4.85,0,*4E
1500948210.42,1168,20.19,73094.0,5.77,4.93,4.93,0,*46
1500948211.65,1169,20.19,73094.3,5.79,4.97,5.01,0,*47
1500948212.85,1170,20.19,73092.0,5.79,4.97,5.07,0,*49
1500948214.05,1171,20.19,73092.0,5.79,4.97,5.07,0,*48
1500948215.29,1172,20.19,73096.0,5.77,4.97,4.97,0,*4D
1500948216.54,1173,20.19,73092.0,5.77,5.05,4.97,0,*46
1500948217.73,1174,20.19,73090.3,5.79,5.07,5.01,0,*43
1500948218.96,1175,20.19,73092.8,5.79,4.97,5.05,0,*4E
1500948220.13,1176,20.19,73092.0,5.79,5.07,5.07,0,*47
1500948221.37,1177,20.19,73092.8,5.77,4.97,4.97,0,*48
1500948222.62,1178,20.19,73090.8,5.77,5.05,5.05,0,*47
1500948223.79,1179,20.19,73084.8,5.79,5.07,5.07,0,*48
1500948224.96,1180,20.19,73088.3,5.79,5.07,5.07,0,*4E
1500948226.16,1181,20.19,73090.5,5.79,5.01,5.07,0,*49
1500948227.39,1182,20.19,73086.3,5.79,5.01,5.01,0,*4C
1500948228.63,1183,20.19,73084.0,5.81,4.97,5.01,0,*44
1500948229.86,1184,20.19,73086.3,5.79,4.97,5.01,0,*44
1500948231.08,1185,20.19,73082.5,5.79,4.97,4.97,0,*4B
1500948232.28,1186,20.19,73080.8,5.79,4.97,4.89,0,*47
1500948233.5,1187,20.19,73082.3,5.79,4.97,5.01,0,*47
1500948234.73,1188,20.19,73084.0,5.79,5.01,5.01,0,*46
1500948235.93,1189,20.19,73088.3,5.79,5.01,5.07,0,*41
1500948237.1,1190,20.19,73088.0,5.79,5.07,5.07,0,*4F
1500948238.3,1191,20.19,73080.8,5.79,5.01,5.07,0,*48
1500948239.53,1192,20.19,73086.3,5.83,5.01,5.05,0,*4C
1500948240.75,1193,20.19,73088.3,5.79,4.97,4.97,0,*4C
1500948241.98,1194,20.19,73090.3,5.79,5.01,5.01,0,*4B
1500948243.2,1195,20.19,73088.8,5.79,4.97,4.97,0,*4A
1500948244.42,1196,20.19,73080.5,5.79,4.97,4.97,0,*49
1500948245.62,1197,20.19,73084.3,5.79,4.89,4.97,0,*47
1500948246.78,1198,20.19,73088.0,5.79,4.85,4.85,0,*47
1500948247.95,1199,20.19,73088.8,5.79,4.89,4.85,0,*4A
1500948249.18,1200,20.19,73088.8,5.79,5.01,4.97,0,*4B
1500948250.43,1201,20.19,73094.0,5.81,4.97,5.01,0,*4D
1500948251.65,1202,20.19,73094.3,5.79,5.01,4.97,0,*49
1500948252.82,1203,20.19,73088.8,5.79,4.89,4.89,0,*46
1500948253.98,1204,20.19,73094.5,5.79,4.85,4.89,0,*4D
1500948255.19,1205,20.19,73092.3,5.77,4.93,4.81,0,*4D
1500948256.44,1206,20.19,73094.0,5.77,4.97,4.97,0,*4D
1500948257.67,1207,20.19,73088.0,5.79,5.01,5.01,0,*42
1500948258.87,1208,20.19,73092.0,5.79,4.89,5.01,0,*4C
1500948260.09,1209,20.19,73096.3,5.81,4.97,5.07,0,*43
1500948261.32,1210,20.19,73094.8,5.79,5.01,5.01,0,*44
1500948262.56,1211,20.19,73094.5,5.81,4.97,4.97,0,*42
1500948263.79,1212,20.19,73100.8,5.79,4.97,5.01,0,*48
1500948264.96,1213,20.19,73096.8,5.79,5.07,5.07,0,*47
1500948266.16,1214,20.19,73098.0,5.79,5.07,5.01,0,*46
1500948267.38,1215,20.19,73106.8,5.83,5.05,5.05,0,*44
1500948268.61,1216,20.19,73104.5,5.79,4.97,5.01,0,*4C
1500948269.8,1217,20.19,73108.8,5.79,4.97,4.89,0,*4C
1500948270.96,1218,20.19,73092.5,5.79,4.85,4.89,0,*40
1500948272.13,1219,20.19,73092.5,5.79,4.89,4.89,0,*4D
1500948273.32,1220,20.19,73084.8,5.79,4.85,4.79,0,*44
1500948274.54,1221,20.19,73082.5,5.81,4.85,4.75,0,*4E
1500948275.73,1222,20.19,73076.3,5.79,4.79,4.85,0,*46
1500948276.95,1223,20.19,73078.0,5.79,4.75,4.79,0,*48
1500948278.17,1224,20.19,73082.5,5.79,4.67,4.67,0,*43
1500948279.39,1225,20.19,73084.3,5.79,4.75,4.67,0,*41
1500948280.61,1226,20.19,73084.5,5.79,4.79,4.79,0,*41
1500948281.78,1227,20.19,73088.3,5.79,4.85,4.85,0,*40
1500948282.94,1228,20.19,73086.5,5.79,4.85,4.85,0,*4F
1500948284.19,1229,20.19,73084.0,5.77,4.75,4.75,0,*40
1500948285.38,1230,20.19,73096.0,5.77,4.85,4.85,0,*48
1500948286.62,1231,20.19,73098.5,5.77,5.05,4.97,0,*43
1500948287.87,1232,20.19,73094.8,5.77,4.97,4.97,0,*4A
1500948289.03,1233,20.19,73092.5,5.75,4.89,4.81,0,*41
1500948290.25,1234,20.19,73092.0,5.77,4.93,4.81,0,*4F
1500948291.44,1235,20.19,73090.0,5.79,4.85,4.79,0,*40
1500948292.61,1236,20.19,73090.3,5.79,4.89,4.85,0,*4C
1500948293.8,1237,20.19,73090.8,5.77,4.81,4.81,0,*4F
1500948294.98,1238,20.19,73092.5,5.77,4.81,4.81,0,*40
1500948296.17,1239,20.19,73092.0,5.77,4.85,4.85,0,*41
1500948297.36,1240,20.19,73090.8,5.77,4.81,4.81,0,*4F
1500948298.54,1241,20.19,73088.0,5.77,4.81,4.85,0,*4A
1500948299.73,1242,20.19,73090.0,5.77,4.85,4.85,0,*4D
1500948300.92,1243,20.19,73090.0,5.77,4.81,4.85,0,*48
1500948302.11,1244,20.19,73088.5,5.77,4.81,4.85,0,*4F
1500948303.33,1245,20.19,73090.5,5.75,4.79,4.71,0,*40
1500948304.52,1246,20.19,73090.3,5.77,4.81,4.81,0,*49
1500948305.73,1247,20.19,73086.5,5.77,4.93,4.85,0,*4F
1500948306.98,1248,20.19,73084.3,5.77,4.93,5.05,0,*49
1500948308.22,1249,20.19,73088.3,5.77,4.97,5.05,0,*4C
1500948309.45,1250,20.19,73086.5,5.75,5.01,5.01,0,*4C
1500948310.67,1251,20.19,73090.5,5.77,5.07,5.05,0,*4D
1500948311.86,1252,20.19,73084.8,5.77,5.07,5.07,0,*4C
1500948313.05,1253,20.19,73086.0,5.77,5.07,5.07,0,*4D
1500948314.22,1254,20.19,73086.8,5.79,5.11,5.11,0,*44
1500948315.42,1255,20.19,73086.0,5.79,5.07,5.01,0,*43
1500948316.62,1256,20.19,73090.3,5.79,5.01,5.07,0,*40
1500948317.87,1257,20.19,73088.8,5.77,4.93,5.05,0,*47
1500948319.11,1258,20.19,73088.3,5.77,4.93,4.97,0,*42
1500948320.28,1259,20.19,73088.5,5.79,4.85,4.85,0,*49
1500948321.48,1260,20.19,73088.3,5.79,4.89,4.97,0,*4C
1500948322.67,1261,20.19,73090.3,5.79,5.07,5.01,0,*44
1500948323.9,1262,20.19,73088.5,5.79,5.01,5.01,0,*41
1500948325.13,1263,20.19,73084.3,5.79,5.01,4.97,0,*4E
1500948326.32,1264,20.19,73090.8,5.79,4.97,4.89,0,*48
1500948327.49,1265,20.19,73086.5,5.79,4.89,4.85,0,*4A
1500948328.65,1266,20.19,73084.3,5.79,4.89,4.85,0,*49
1500948329.84,1267,20.19,73080.8,5.77,4.85,4.81,0,*4E
1500948331.06,1268,20.19,73078.0,5.77,4.81,4.93,0,*46
1500948332.3,1269,20.19,73076.5,5.77,4.93,4.93,0,*44
1500948333.52,1270,20.19,73074.0,5.77,4.75,4.81,0,*47
1500948334.74,1271,20.19,73078.0,5.79,4.75,4.75,0,*43
1500948335.91,1272,20.19,73072.5,5.79,4.85,4.85,0,*40
1500948337.07,1273,20.19,73074.5,5.79,4.89,4.85,0,*4D
1500948338.24,1274,20.19,73078.0,5.79,4.89,4.89,0,*46
1500948339.41,1275,20.19,73076.8,5.79,4.89,4.89,0,*47
1500948340.6,1276,20.19,73076.5,5.79,4.89,4.97,0,*4B
1500948341.77,1277,20.19,73082.3,5.79,5.07,5.07,0,*45
1500948342.94,1278,20.19,73084.3,5.79,5.07,5.07,0,*4A
1500948344.17,1279,20.19,73084.3,5.79,5.01,5.01,0,*4B
1500948345.4,1280,20.19,73082.8,5.79,5.01,5.01,0,*4D
1500948346.64,1281,20.19,73086.3,5.77,5.05,4.97,0,*48
1500948347.89,1282,20.19,73086.0,5.77,4.97,4.97,0,*41
1500948349.12,1283,20.19,73090.0,5.79,5.01,4.97,0,*40
1500948350.31,1284,20.19,73088.0,5.79,4.97,5.07,0,*41
1500948351.54,1285,20.19,73086.8,5.79,4.97,4.97,0,*48
1500948352.76,1286,20.19,73084.5,5.79,5.01,5.01,0,*4B
1500948353.99,1287,20.19,73090.5,5.79,4.97,5.01,0,*44
1500948355.21,1288,20.19,73086.8,5.79,4.97,4.97,0,*45
1500948356.44,1289,20.19,73088.5,5.79,5.01,4.97,0,*4A
1500948357.63,1290,20.19,73088.5,5.81,4.89,4.89,0,*4B
1500948358.79,1291,20.19,73090.8,5.79,4.89,4.85,0,*41
1500948360.01,1292,20.19,73090.8,5.81,4.97,4.89,0,*46
1500948361.18,1293,20.19,73090.3,5.79,4.89,4.89,0,*4F
1500948362.34,1294,20.19,73088.8,5.79,4.89,4.89,0,*48
1500948363.56,1295,20.19,73092.3,5.79,4.97,4.97,0,*49
1500948364.76,1296,20.19,73088.5,5.79,4.89,4.97,0,*45
1500948365.93,1297,20.19,73090.3,5.79,4.89,4.89,0,*4B
1500948367.12,1298,20.19,73088.8,5.79,4.89,4.97,0,*4B
1500948368.35,1299,20.19,73088.3,5.79,5.01,5.01,0,*45
1500948369.58,1300,20.19,73090.8,5.79,5.01,5.01,0,*44
1500948370.83,1301,20.19,73086.3,5.81,5.01,5.01,0,*42
1500948372.0,1302,20.19,73090.0,5.79,5.07,5.07,0,*46
1500948373.17,1303,20.19,73086.8,5.79,5.07,5.07,0,*47
1500948374.34,1304,20.19,73090.5,5.79,5.07,5.07,0,*40
1500948375.57,1305,20.19,73086.5,5.79,5.01,5.01,0,*41
1500948376.77,1306,20.19,73086.0,5.79,4.97,5.07,0,*4A
1500948378.01,1307,20.19,73086.0,5.81,4.97,4.97,0,*44
1500948379.18,1308,20.19,73084.5,5.79,4.89,4.89,0,*4C
1500948380.37,1309,20.19,73082.5,5.79,4.97,4.89,0,*42
1500948381.59,1310,20.19,73080.3,5.81,4.89,4.97,0,*4D
1500948382.79,1311,20.19,73080.0,5.79,5.07,5.01,0,*42
1500948384.02,1312,20.19,73086.0,5.79,5.01,5.01,0,*47
1500948385.27,1313,20.19,73086.3,5.81,5.01,5.01,0,*41
1500948386.47,1314,20.19,73082.5,5.83,5.05,5.11,0,*41
1500948387.69,1315,20.19,73080.5,5.81,5.07,5.01,0,*41
1500948388.88,1316,20.19,73080.3,5.81,5.07,5.07,0,*44
1500948390.13,1317,20.19,73082.0,5.81,5.01,5.01,0,*45
1500948391.36,1318,20.19,73080.0,5.81,4.89,5.01,0,*4B
1500948392.58,1319,20.19,73078.0,5.83,5.01,4.93,0,*43
1500948393.83,1320,20.19,73082.8,5.81,5.01,5.01,0,*41
1500948395.01,1321,20.19,73082.3,5.79,5.07,5.07,0,*47
1500948396.23,1322,20.19,73086.3,5.83,5.01,5.05,0,*45
1500948397.48,1323,20.19,73086.0,5.81,4.97,4.97,0,*42
1500948398.73,1324,20.19,73084.3,5.81,5.01,5.01,0,*45
1500948399.98,1325,20.19,73084.5,5.81,4.97,5.01,0,*4A
1500948401.17,1326,20.13,73082.8,5.81,4.89,4.89,0,*47
1500948402.35,1327,20.19,73080.8,5.81,4.89,4.89,0,*46
1500948403.57,1328,20.19,73080.5,5.81,4.85,4.79,0,*4A
1500948404.76,1329,20.19,73082.8,5.81,4.89,4.89,0,*48
1500948406.01,1330,20.19,73082.5,5.81,4.97,5.01,0,*4E
1500948407.26,1331,20.19,73082.3,5.81,4.97,5.01,0,*4F
1500948408.51,1332,20.19,73084.0,5.81,5.01,5.01,0,*42
1500948409.73,1333,20.19,73080.5,5.83,5.05,5.05,0,*41
1500948410.92,1334,20.19,73082.3,5.81,4.89,4.89,0,*44
1500948412.11,1335,20.19,73076.8,5.81,4.89,4.89,0,*45
1500948413.27,1336,20.19,73072.3,5.79,4.89,4.89,0,*41
1500948414.52,1337,20.19,73074.5,5.81,4.97,5.01,0,*49
1500948415.78,1338,20.19,73070.3,5.81,5.01,5.01,0,*48
1500948417.0,1339,20.19,73072.8,5.81,5.01,5.07,0,*4F
1500948418.25,1340,20.19,73068.0,5.81,5.01,5.01,0,*47
1500948419.44,1341,20.13,73064.5,5.79,4.97,4.89,0,*4E
1500948420.69,1342,20.19,73068.3,5.81,4.97,4.97,0,*45
1500948421.88,1343,20.19,73064.8,5.81,5.07,5.07,0,*44
1500948423.11,1344,20.19,73066.0,5.79,5.01,5.01,0,*44
1500948424.36,1345,20.19,73070.5,5.81,4.97,4.97,0,*42
1500948425.55,1346,20.19,73074.0,5.83,5.11,5.05,0,*46
1500948426.74,1347,20.19,73074.3,5.81,5.07,5.07,0,*40
1500948427.96,1348,20.19,73078.0,5.81,5.07,5.01,0,*49
1500948429.16,1349,20.19,73074.8,5.81,5.07,5.07,0,*4E
1500948430.35,1350,20.19,73076.3,5.81,5.07,5.07,0,*46
1500948431.55,1351,20.19,73080.5,5.81,5.07,5.07,0,*47
1500948432.74,1352,20.19,73080.0,5.81,5.11,5.07,0,*43
1500948433.94,1353,20.19,73084.3,5.81,5.07,5.07,0,*45
1500948435.11,1354,20.19,73084.3,5.83,5.11,5.11,0,*40
1500948436.29,1355,20.19,73084.0,5.83,5.11,5.11,0,*41
1500948437.48,1356,20.19,73086.8,5.83,5.11,5.05,0,*47
1500948438.68,1357,20.19,73086.5,5.83,5.11,5.05,0,*46
1500948439.9,1358,20.19,73086.0,5.83,5.05,5.05,0,*4C
1500948441.08,1359,20.19,73086.0,5.83,5.11,5.11,0,*4D
1500948442.26,1360,20.19,73084.8,5.83,5.11,5.11,0,*47
1500948443.43,1361,20.19,73086.0,5.83,5.11,5.11,0,*46
1500948444.61,1362,20.19,73086.0,5.83,5.11,5.11,0,*45
1500948445.78,1363,20.19,73080.0,5.83,5.11,5.11,0,*44
1500948446.95,1364,20.19,73082.0,5.83,5.15,5.11,0,*47
1500948448.13,1365,20.19,73080.3,5.83,5.15,5.11,0,*46
1500948449.3,1366,20.19,73082.5,5.83,5.15,5.11,0,*45
1500948450.47,1367,20.19,73078.0,5.83,5.15,5.11,0,*44
1500948451.66,1368,20.19,73082.3,5.85,5.11,5.11,0,*49
1500948452.86,1369,20.19,73080.0,5.83,5.11,5.05,0,*4B
1500948454.1,1370,20.13,73078.8,5.85,5.05,5.05,0,*40
1500948455.31,1371,20.19,73078.0,5.83,5.05,5.11,0,*42
1500948456.5,1372,20.19,73080.0,5.85,5.11,5.11,0,*42
1500948457.68,1373,20.19,73076.0,5.83,5.11,5.11,0,*45
1500948458.85,1374,20.13,73078.0,5.83,5.11,5.11,0,*42
1500948460.03,1375,20.19,73082.8,5.83,5.11,5.11,0,*43
1500948461.2,1376,20.19,73078.8,5.83,5.11,5.11,0,*40
1500948462.45,1377,20.19,73080.8,5.85,5.05,5.05,0,*47
1500948463.62,1378,20.19,73078.3,5.83,5.11,5.11,0,*4E
1500948464.83,1379,20.19,73080.8,5.83,5.05,5.11,0,*4A
1500948466.02,1380,20.19,73082.8,5.85,5.11,5.11,0,*4F
1500948467.21,1381,20.13,73078.3,5.85,5.11,5.11,0,*4E
1500948468.39,1382,20.19,73076.5,5.83,5.11,5.11,0,*4B
1500948469.57,1383,20.19,73080.3,5.83,5.11,5.11,0,*4A
1500948470.76,1384,20.19,73080.0,5.83,5.11,5.05,0,*48
1500948472.01,1385,20.19,73082.5,5.85,5.01,5.01,0,*4A
1500948473.23,1386,20.19,73078.5,5.85,5.01,5.11,0,*48
1500948474.46,1387,20.19,73082.8,5.83,5.01,5.05,0,*4A
1500948475.65,1388,20.13,73080.5,5.85,5.11,5.11,0,*47
1500948476.83,1389,20.13,73080.0,5.83,5.11,5.11,0,*40
1500948478.03,1390,20.19,73084.8,5.83,5.11,5.05,0,*4D
1500948479.22,1391,20.19,73082.3,5.85,5.11,5.11,0,*4F
1500948480.4,1392,20.19,73084.0,5.83,5.11,5.11,0,*4A
1500948481.57,1393,20.13,73082.5,5.83,5.11,5.11,0,*4B
1500948482.75,1394,20.13,73080.5,5.83,5.11,5.11,0,*4C
1500948483.92,1395,20.19,73084.0,5.83,5.11,5.11,0,*4D
1500948485.12,1396,20.19,73084.8,5.83,5.11,5.05,0,*4B
1500948486.31,1397,20.19,73086.0,5.85,5.11,5.15,0,*4D
1500948487.51,1398,20.19,73080.3,5.85,5.11,5.11,0,*46
1500948488.7,1399,20.13,73080.8,5.85,5.11,5.11,0,*47
1500948489.9,1400,20.13,73080.5,5.85,5.11,5.11,0,*40
1500948491.09,1401,20.13,73082.0,5.85,5.11,5.11,0,*41
1500948492.29,1402,20.19,73084.3,5.85,5.11,5.11,0,*42
1500948493.48,1403,20.19,73082.3,5.85,5.15,5.15,0,*43
1500948494.66,1404,20.19,73084.0,5.85,5.15,5.15,0,*44
1500948495.86,1405,20.19,73084.0,5.85,5.19,5.19,0,*45
1500948497.05,1406,20.13,73082.5,5.85,5.15,5.15,0,*46
1500948498.24,1407,20.13,73082.0,5.85,5.15,5.15,0,*47
1500948499.43,1408,20.19,73080.3,5.85,5.11,5.15,0,*4C
1500948500.65,1409,20.13,73076.8,5.85,5.05,5.15,0,*48
1500948501.87,1410,20.19,73080.5,5.85,5.05,5.11,0,*44
1500948503.09,1411,20.19,73078.3,5.85,5.11,5.05,0,*45
1500948504.26,1412,20.13,73078.0,5.83,5.11,5.11,0,*45
1500948505.51,1413,20.13,73076.8,5.85,5.01,5.05,0,*46
1500948506.73,1414,20.19,73076.3,5.85,5.11,5.05,0,*40
1500948507.95,1415,20.19,73078.5,5.85,5.01,5.11,0,*45
1500948509.17,1416,20.19,73074.8,5.85,5.05,5.11,0,*42
1500948510.39,1417,20.19,73080.8,5.89,5.15,5.05,0,*4B
1500948511.59,1418,20.13,73080.0,5.89,5.15,5.15,0,*45
1500948512.79,1419,20.13,73082.3,5.89,5.15,5.15,0,*44
1500948513.99,1420,20.19,73082.5,5.89,5.15,5.15,0,*4E
1500948515.19,1421,20.19,73084.0,5.89,5.15,5.15,0,*4F
1500948516.38,1422,20.13,73080.8,5.85,5.11,5.11,0,*40
1500948517.59,1423,20.13,73078.8,5.89,5.15,5.07,0,*4E
1500948518.79,1424,20.19,73078.3,5.89,5.15,5.15,0,*4A
1500948519.99,1425,20.19,73082.5,5.89,5.07,5.07,0,*4B
1500948521.2,1426,20.13,73078.8,5.91,4.97,5.11,0,*4E
1500948522.43,1427,20.19,73084.3,5.89,5.07,5.05,0,*4B
1500948523.66,1428,20.19,73082.5,5.89,5.05,5.07,0,*44
1500948524.86,1429,20.19,73084.0,5.89,5.07,5.07,0,*47
1500948526.05,1430,20.13,73080.8,5.91,5.11,5.19,0,*4E
1500948527.25,1431,20.19,73082.3,5.89,5.15,5.07,0,*4D
1500948528.45,1432,20.19,73086.8,5.89,5.15,5.15,0,*4D
1500948529.63,1433,20.19,73084.8,5.91,5.11,5.11,0,*45
1500948530.83,1434,20.13,73086.5,5.89,5.07,5.15,0,*48
1500948532.03,1435,20.19,73086.0,5.89,5.07,5.15,0,*49
1500948533.28,1436,20.13,73084.8,5.85,5.05,5.05,0,*45
1500948534.49,1437,20.13,73082.0,5.85,5.11,5.05,0,*41
1500948535.74,1438,20.13,73084.3,5.85,5.05,5.05,0,*4B
1500948536.94,1439,20.13,73084.8,5.89,5.07,5.07,0,*46
1500948538.14,1440,20.19,73090.0,5.89,5.07,5.07,0,*48